User: anonymous   Login
Location: Cluny
(50.9333°N, 112.8167°W)
Time: 22:35:23
(UTC-07:00)
Language:

Hamsat - Orbit

View from above orbital plane
View from above orbital plane
View from above satellite
View from above satellite

Ground track
Ground track

The orbit data is extracted from the following two-line orbital elements,

1 28650U 05017B   18050.89460215 +.00000270 +00000-0 +34484-4 0  9999
2 28650 097.6847 022.3232 0024327 033.9454 326.3315 14.88867531693028
Epoch (UTC): 19 February 2018 21:28:13
Eccentricity: 0.0024327
inclination: 97.6847°
perigee height: 584 km
apogee height: 618 km
right ascension of ascending node: 22.3232°
argument of perigee: 33.9454°
revolutions per day: 14.88867531
mean anomaly at epoch: 326.3315°
orbit number at epoch: 69302

The dashed part of the orbit path shows where the satellite is in the earth's shadow,  

DLR